MDT,Max TemperatureF,Mean TemperatureF,Min TemperatureF,Max Dew PointF,MeanDew PointF,Min DewpointF,Max Humidity, Mean Humidity, Min Humidity, Max Sea Level PressureIn, Mean Sea Level PressureIn, Min Sea Level PressureIn, Max VisibilityMiles, Mean VisibilityMiles, Min VisibilityMiles, Max Wind SpeedMPH, Mean Wind SpeedMPH, Max Gust SpeedMPH,PrecipitationIn, CloudCover, Events, WindDirDegrees
2013-7-1,91,74,57,58,55,51,87,57,27,30.15,30.10,30.05,10,10,10,18,8,23,0.00,0,,79
2013-7-2,98,76,53,55,51,41,83,49,15,30.12,30.01,29.90,10,10,10,14,4,24,0.00,0,,227
2013-7-3,95,78,61,53,48,42,67,43,18,30.08,29.87,29.79,10,10,10,26,9,32,0.00,1,,300
2013-7-4,95,76,57,55,47,38,67,41,14,29.88,29.79,29.70,10,10,10,25,6,29,0.00,1,,304
2013-7-5,84,68,52,58,54,50,86,61,36,29.94,29.76,29.66,10,10,7,26,6,33,0.14,3,Rain-Thunderstorm,251
2013-7-6,85,69,52,54,50,45,89,58,27,29.95,29.85,29.74,10,9,0,33,10,47,0.97,2,Rain-Thunderstorm,34
2013-7-7,83,67,50,54,49,37,89,57,24,29.98,29.87,29.75,10,10,10,52,13,63,T,1,Rain-Thunderstorm,140
2013-7-8,84,69,53,59,53,48,84,59,34,30.00,29.90,29.80,10,10,6,26,6,37,0.12,2,Rain-Thunderstorm,94
2013-7-9,88,69,50,54,46,34,89,52,15,30.13,30.06,30.00,10,10,10,22,7,29,0.00,0,,12
2013-7-10,95,72,49,51,44,29,83,47,11,30.08,29.95,29.76,10,10,10,16,6,25,0.00,0,,226
2013-7-11,91,73,54,47,43,39,66,41,16,29.79,29.74,29.70,10,10,10,41,14,52,T,1,,257
2013-7-12,88,71,53,46,42,36,71,44,16,29.96,29.81,29.74,10,10,10,28,10,36,T,1,,245
2013-7-13,86,69,51,54,48,43,72,50,28,30.07,29.93,29.81,10,10,10,26,12,35,T,2,Rain-Thunderstorm,100
2013-7-14,85,72,59,53,49,45,67,48,28,30.14,30.04,29.94,10,10,10,30,14,40,T,3,,96
2013-7-15,96,74,51,51,41,29,77,44,10,29.98,29.88,29.78,10,10,10,23,7,28,0.00,0,,270
2013-7-16,73,65,56,50,47,40,69,53,37,30.23,30.10,29.92,10,10,10,26,16,33,T,2,,75
2013-7-17,86,71,56,58,54,50,90,62,34,30.24,30.10,29.98,10,10,7,38,6,45,0.05,3,Rain-Thunderstorm,113
2013-7-18,91,73,54,58,46,32,86,50,13,30.12,30.05,29.98,10,10,10,24,11,29,0.01,0,,293
2013-7-19,93,70,47,45,36,21,71,40,8,30.08,29.98,29.89,10,10,10,23,7,30,0.00,0,,284
2013-7-20,93,69,45,36,35,33,61,44,27,29.96,29.95,29.92,10,10,10,8,5,,0.00,0,,325
2013-7-21,92,69,45,,,,,,,,,,,,,29,9,29,0.00,,,
2013-7-22,96,72,47,37,27,19,29,18,7,30.03,29.83,29.76,10,10,10,29,11,39,0.00,0,,286
2013-7-23,93,70,46,46,34,19,65,36,7,30.01,29.97,29.90,10,10,10,18,8,31,0.00,0,,337
2013-7-24,96,76,55,48,41,30,62,37,11,30.04,29.94,29.83,10,10,10,31,7,38,0.00,0,,124
2013-7-25,90,76,61,50,46,36,65,40,15,30.10,30.03,29.95,10,10,10,29,15,37,0.00,0,,81
2013-7-26,95,75,55,51,44,19,72,40,7,30.16,30.05,29.91,10,10,10,29,10,36,0.00,0,,72
2013-7-27,87,68,49,48,44,36,80,48,16,30.01,29.90,29.79,10,10,10,31,12,38,T,1,,239
2013-7-28,84,69,54,52,46,42,67,47,27,30.00,29.82,29.70,10,10,10,20,14,23,T,1,Thunderstorm,34
2013-7-29,77,65,52,52,50,47,83,61,38,30.00,29.92,29.83,10,10,10,25,14,31,0.01,2,Thunderstorm,62
2013-7-30,86,68,50,53,47,36,83,52,20,30.23,30.08,29.99,10,10,10,23,8,28,T,2,Rain-Thunderstorm,81
2013-7-31,93,68,42,47,41,28,92,52,11,30.24,30.11,29.99,10,10,10,21,4,52,T,1,,293